Fort Lauderdale, FL

10:45 PM EDT on August 16, 2017 (GMT -0400)
Fort Lauderdale Executive

Weather History for KFXE - March, 2013

Change the Weather History Date:

Monday, March 11, 2013

  Actual Average Record
Temperature  
Mean Temperature 72 °F -  
Max Temperature 77 °F 79 °F 89 °F (1952)
Min Temperature 68 °F 60 °F 44 °F (1949)
Cooling Degree Days 6    
Growing Degree Days 22 (Base 50)    
Moisture  
Dew Point 58 °F    
Average Humidity 62    
Maximum Humidity 71    
Minimum Humidity 50    
Precipitation  
Precipitation 0.00 in - - ()
Sea Level Pressure  
Sea Level Pressure 30.04 in    
Wind  
Wind Speed 13 mph (ESE)    
Max Wind Speed 17 mph    
Max Gust Speed 23 mph    
Visibility 10 miles    
Events      
Averages and records for this station are not official NWS values.
T = Trace of Precipitation, MM = Missing Value Source: NWS Daily Summary

Daily Weather History Graph

Daily Weather History Graph

Search for Another Location

Airport or City:

Trip Planner

Search our weather history database for the weather conditions in past years. The results will help you decide how hot, cold, wet, or windy it might be!

Date:

Astronomy

Mar. 11, 2013 Rise Set
Actual Time 7:33 AM EDT 7:27 PM EDT
Civil Twilight 7:10 AM EDT 7:50 PM EDT
Nautical Twilight 6:44 AM EDT 8:17 PM EDT
Astronomical Twilight 6:17 AM EDT 8:44 PM EDT
Moon 7:09 AM EDT (3/11) 7:32 PM EDT (3/11)
Length of Visible Light 12h 39m
Length of Day
11h 53m
Waning Crescent, 0% of the Moon is Illuminated
Mar 11
Waning Crescent
Mar 11
New
Mar 19
First Quarter
Mar 27
Full
Apr 3
Last Quarter

Hourly Weather History & Observations

Time (EDT) Temp. Dew Point Humidity Pressure Visibility Wind Dir Wind Speed Gust Speed Precip Events Conditions
12:53 AM 70.0 °F 59.0 °F 68% 30.10 in 10.0 mi East 15.0 mph - N/A   Overcast
1:53 AM 70.0 °F 59.0 °F 68% 30.09 in 10.0 mi East 13.8 mph - N/A   Overcast
2:53 AM 70.0 °F 57.9 °F 65% 30.07 in 10.0 mi East 16.1 mph 21.9 mph N/A   Scattered Clouds
3:53 AM 69.1 °F 57.0 °F 65% 30.05 in 10.0 mi ESE 11.5 mph - N/A   Overcast
5:53 AM 69.1 °F 57.0 °F 65% 30.03 in 10.0 mi ESE 11.5 mph - N/A   Overcast
6:53 AM 68.0 °F 57.0 °F 68% 30.04 in 10.0 mi ESE 10.4 mph - N/A   Partly Cloudy
7:53 AM 69.1 °F 55.9 °F 63% 30.04 in 10.0 mi SE 10.4 mph - N/A   Partly Cloudy
10:53 AM 73.9 °F 55.9 °F 53% 30.08 in 10.0 mi ESE 12.7 mph - N/A   Scattered Clouds
11:53 AM 75.0 °F 55.0 °F 50% 30.07 in 10.0 mi ESE 17.3 mph 23.0 mph N/A   Scattered Clouds
12:53 PM 75.0 °F 57.0 °F 53% 30.06 in 10.0 mi ESE 17.3 mph 23.0 mph N/A   Scattered Clouds
1:53 PM 73.9 °F 57.0 °F 55% 30.03 in 10.0 mi ESE 13.8 mph 21.9 mph N/A   Partly Cloudy
2:53 PM 75.0 °F 57.9 °F 55% 30.04 in 10.0 mi SE 13.8 mph 21.9 mph N/A   Scattered Clouds
3:53 PM 75.0 °F 57.9 °F 55% 30.03 in 10.0 mi SE 12.7 mph - N/A   Mostly Cloudy
4:53 PM 73.0 °F 59.0 °F 61% 30.02 in 10.0 mi SE 12.7 mph - N/A   Mostly Cloudy
5:53 PM 73.0 °F 59.0 °F 61% 29.99 in 10.0 mi SE 10.4 mph - N/A   Scattered Clouds
6:53 PM 71.6 °F 59.0 °F 64% 29.97 in 10.0 mi ESE 12.7 mph 20.7 mph N/A   Partly Cloudy
8:53 PM 71.1 °F 60.1 °F 68% 30.01 in 10.0 mi SE 9.2 mph - N/A   Scattered Clouds
9:53 PM 70.0 °F 60.1 °F 71% 30.02 in 10.0 mi SE 5.8 mph - N/A   Partly Cloudy
10:53 PM 70.0 °F 60.1 °F 71% 30.03 in 10.0 mi SE 8.1 mph - N/A   Clear
11:53 PM 70.0 °F 59.0 °F 68% 30.01 in 10.0 mi SE 9.2 mph - N/A   Clear